Regional Weather Roundup
Issued by NWS Upton, NY

Current Version | Previous Version | Graphics & Text | Print | Product List | Glossary Off
Versions: 1 2 3 4 5 6 7 8 9 10 11 12 13 14 15 16 17 18 19 20 21 22 23 24 25 26 27

000
ASUS41 KOKX 212008
RWROKX

REGIONAL WEATHER ROUNDUP
NATIONAL WEATHER SERVICE NEW YORK NY
300 PM EST SAT JAN 21 2017

NOTE: "FAIR" INDICATES FEW OR NO CLOUDS BELOW 12,000 FEET WITH NO
SIGNIFICANT WEATHER AND/OR OBSTRUCTIONS TO VISIBILITY.

NYZ071-072-176-178-NJZ106-104-212100-
NEW YORK CITY METRO AREA

CITY           SKY/WX    TMP DP  RH WIND       PRES   REMARKS
Central Park   SUNNY     46  42  86 VRB3      29.83S FOG
Wall St Helipt CLOUDY    46  42  86 VRB6      29.84R
LaGuardia APRT MOSUNNY   50  43  77 SW8       29.81R
Kennedy INTL   CLOUDY    45  45 100 W12       29.83R FOG
Breezy Point     N/A     43 N/A N/A W5          N/A
Newark/Liberty CLOUDY    47  43  86 SW7       29.42F
Teterboro      SUNNY     49  44  83 S8        29.81R
$$

NYZ177-179-078>081-212100-
LONG ISLAND NEW YORK

CITY           SKY/WX    TMP DP  RH WIND       PRES   REMARKS
Jones Beach      N/A     41 N/A N/A W8          N/A
Matinecock PT  NOT AVBL
Farmingdale    SUNNY     49  43  80 S12       29.81R
MacArthur/ISP  MOSUNNY   48  44  86 S8        29.80S
Shirley        CLOUDY    45  44  97 S6        29.81S FOG
Westhampton    CLOUDY    45  42  89 SW6       29.82F FOG
Southampton    NOT AVBL
Bridgehampton  NOT AVBL
East Hampton   CLOUDY    46  42  88 SW5       29.80F
Montauk          N/A     45  42  89 W7        29.82S
$$

NYZ052-065-067-212100-
HUDSON VALLEY

CITY           SKY/WX    TMP DP  RH WIND       PRES   REMARKS
White Plains   SUNNY     54  44  69 NW5       29.78S
Newburgh       SUNNY     52  46  82 SW7       29.79S
Montgomery     SUNNY     52  45  77 S10       29.77R
Poughkeepsie   SUNNY     53  44  71 SW5       29.77S
Albany         MOSUNNY   52  41  66 CALM      29.76F
$$

NJZ001-105-106-008-010-013-015-019>022-104-212100-
NEW JERSEY

CITY           SKY/WX    TMP DP  RH WIND       PRES   REMARKS
Newark/Liberty CLOUDY    47  43  86 SW7       29.42F
Teterboro      SUNNY     49  44  83 S8        29.81R
Caldwell       PTSUNNY   47  43  86 S7        29.82R
Somerville     CLOUDY    47  44  90 SW6       29.81R
Linden         CLOUDY    47  43  88 W9        29.83R
Sussex         CLOUDY    47  45  93 VRB6      29.80R
Andover          N/A     45  43  93 SW6       29.81R
Trenton        CLOUDY    46  45  96 W5        29.83R FOG
Millville      CLOUDY    47  47 100 VRB3      29.84F FOG
Atlantic City  CLOUDY    47  44  90 W7        29.84S
Wrightstown    CLOUDY    46  45  97 W7        29.81S FOG
Toms River     CLOUDY    47  46  97 SW6       29.84S
Belmar         CLOUDY    47  45  93 SW8       29.83S FOG
$$

PAZ047>061-062-071-212100-
EASTERN PENNSYLVANIA

CITY           SKY/WX    TMP DP  RH WIND       PRES   REMARKS
Philadelphia   CLOUDY    46  45  96 SW5       29.84S FOG
Allentown      FOG       48  44  86 W6        29.82S VSB 1
Scranton       CLOUDY    47  45  93 W6        29.80R FOG
$$

CTZ002-004>006-009-010-012-RIZ004-006-007-MAZ004-011-015-212100-
SOUTHERN NEW ENGLAND
 IN CT

CITY           SKY/WX    TMP DP  RH WIND       PRES   REMARKS
Bradley INTL   MOSUNNY   55  43  63 S9        29.75F
Hartford       SUNNY     53  44  71 S7        29.76F
Danbury        MOSUNNY   48  43  82 W5        29.79S
Wtrbury/Oxford MOSUNNY   52  41  66 CALM      29.78S
Bridgeport     MOSUNNY   48  42  80 SW8       29.79S
Meriden        SUNNY     53  42  66 S7        29.77F
New Haven      CLOUDY    45  42  89 S8        29.79S
Chester          N/A     50  43  76 S7        29.77F
Groton         CLOUDY    46  41  82 W13       29.79F HAZE
Wilimantic     MOSUNNY   56  45  66 S5        29.77S

 IN RI

CITY           SKY/WX    TMP DP  RH WIND       PRES   REMARKS
Providence     MOSUNNY   56  42  59 W7        29.75F
Block Island   NOT AVBL
Westerly       CLOUDY    44  39  82 W15G23    29.79S HAZE
 IN MA

CITY           SKY/WX    TMP DP  RH WIND       PRES   REMARKS
Boston         MOSUNNY   54  43  66 W7        29.72F
Worcester      SUNNY     50  40  68 W12       29.72F
Westfield      MOSUNNY   52  42  69 S7        29.74F
Provincetown   SUNNY     46  41  82 SW10      29.74F
Nantucket      CLOUDY    44  41  89 W15G23    29.76F
$$

ANZ330-335-338-340-345-350-353-355-212100-
COASTAL MARINE OBSERVATIONS


STATION/POSITION TIME  SKY/WX   TEMP    WIND        PRES    VSBY  WAVE
                                AIR SEA DIR/SP/G                  HT/PER
                 (UTC)          (F)     (DEG/KT/KT) (MB)    (MI)  (FT/S)
NY HARB ENTRANCE 1850            44 44  270/  6/  8 1009.9          3/13
20 S FIRE ISLAND 1950            44 45  240/ 10/ 14 1009.6          3/11
GREAT SOUTH BAY  NOT AVBL
23 SSW MONTAUK P 1850            43 47  250/ 12/ 16 1010.0          4/11
15 E BARNEGAT LI 1930               47                N/A           4/11
HUDSON CANYON    1850            48 51              1010.5          4/11
KINGS POINT      1942            52 40              1009.0
EXECUTION ROCKS  1945            47     220/  6/  6   N/A
CENTRAL LI SOUND NOT AVBL
EASTERN LI SOUND NOT AVBL
ROBBINS REEF     1948            45     230/ 10/ 11 1010.1
$$


>>>>>>>>>>>>>>>>>>>>>>>>>>>> KEY <<<<<<<<<<<<<<<<<<<<<<<<<<<
>                                                          <
>     SKY/WX - Sky Condition/Present Weather               <
>     TMP    - Temperature in Fahrenheit                   <
>     DP     - Dew Point in Fahrenheit                     <
>     RH     - Relative Humidity in Percent                <
>     WIND   - Direction (from) and Speed in MPH           <
>     PRES   - Mean Sea Level Pressure (inches of Hg)      <
>     WCI    - Wind Chill Index                            <
>     VSB    - VISIBILITY IN MILES                         <
>     HX     - HEAT INDEX                                  <
>     TC     - TEMPERATURE IN CELSIUS                      <
>     VRB    - VARIABLE WIND DIRECTION                     <
>                                                          <
>>>>>>>>>>>>>>>>>>>>>>>>>>>> KEY <<<<<<<<<<<<<<<<<<<<<<<<<<<




USA.gov is the U.S. government's official web portal to all federal, state and local government web resources and services.